Theta_e
317 319 320 322 322 324 329 331 332 332 329 318 315 317 315 316 318 317 318 319 320 319 319 319 320 320 319 320 319 321 322 322 325 328 326 332 340 335 336 343 345 344 343 341 341 342 344 345 345 344 344 344 343 343 342 340 338 337 336 336 337 338 338 337 338 339 339 339 338 338 339 339 338 337 337 336 336 335 333 332 331 329 328 325 319 316 313 309 308 308 310 312 314 313 310 310 312
317 321 321 323 322 326 336 335 330 326 323 314 312 316 313 316 318 316 318 318 319 318 320 321 321 320 320 320 320 324 325 324 327 331 331 333 335 332 337 343 344 345 342 341 341 342 344 344 345 345 345 344 344 343 342 340 338 337 336 337 337 337 337 336 337 338 338 339 338 337 338 338 337 337 336 335 335 334 331 330 330 329 329 325 319 317 313 308 306 306 308 310 310 309 308 308 309
319 322 322 324 325 327 338 334 327 322 318 313 311 315 314 316 317 316 319 317 319 319 319 320 320 319 319 320 319 323 324 324 326 329 332 331 330 330 336 342 343 345 343 341 341 343 343 344 345 344 344 344 344 343 342 340 338 338 337 337 337 337 337 337 337 337 337 337 338 337 337 338 337 336 335 335 334 332 330 328 329 330 330 326 322 321 317 311 305 303 304 304 305 305 304 305 305
319 322 322 325 333 333 335 330 331 329 316 315 314 314 316 316 317 317 319 318 319 319 318 319 317 316 319 320 318 320 321 323 326 329 331 330 330 331 337 342 343 344 344 342 341 342 343 344 345 344 345 344 344 343 342 340 339 338 338 337 336 336 336 336 336 337 336 336 337 337 337 338 337 336 335 335 333 332 329 326 328 329 329 327 325 325 322 316 307 302 301 301 301 301 301 301 302
320 321 321 325 336 333 331 327 332 332 316 320 318 313 317 317 318 317 318 318 318 318 318 319 317 316 319 319 318 320 319 320 327 331 331 330 332 334 338 342 343 345 344 342 340 342 343 343 344 345 344 344 344 343 342 340 339 339 337 337 335 334 335 334 334 336 335 334 335 336 337 337 337 336 335 335 333 331 328 326 327 328 328 327 327 326 324 319 311 303 300 300 300 300 300 300 300
320 322 323 325 330 328 332 327 322 322 316 322 318 313 318 316 319 318 317 317 317 318 317 318 317 318 320 319 321 325 323 320 327 331 331 333 335 335 338 339 342 345 343 342 340 341 343 342 343 344 344 344 344 343 342 341 340 339 338 338 335 333 334 333 333 336 336 335 335 336 337 337 336 336 335 334 333 331 328 327 328 329 329 328 327 326 324 320 315 307 301 299 300 300 300 300 300
321 324 328 330 331 329 334 326 317 320 318 319 318 316 318 316 318 318 318 317 316 317 316 317 316 318 319 319 325 329 327 323 330 333 332 336 338 337 337 337 340 342 343 343 341 341 343 342 343 343 344 344 343 343 342 341 340 339 338 337 335 331 331 331 332 336 337 336 336 336 337 336 336 336 335 334 332 330 328 329 330 331 330 328 327 325 324 321 318 312 304 299 300 300 300 300 300
322 324 331 336 334 332 331 323 319 324 320 316 318 318 318 318 318 317 318 318 316 317 317 318 317 318 317 320 329 330 328 327 329 332 334 338 339 338 337 337 339 342 344 344 343 343 343 342 342 343 344 343 343 343 342 341 340 339 338 337 334 330 328 329 331 335 337 337 337 337 337 337 337 335 334 333 331 329 330 331 331 331 330 328 327 325 324 322 320 316 309 301 299 300 300 300 300
322 324 330 335 330 329 326 321 319 321 319 317 317 319 319 319 319 318 318 317 317 317 317 317 317 317 316 320 325 325 326 329 329 331 333 336 339 339 338 340 341 343 344 344 344 343 344 343 342 343 344 343 343 343 342 341 340 339 338 337 334 330 328 328 332 335 336 337 336 337 337 337 336 334 333 332 330 330 331 332 331 331 329 328 327 326 325 323 322 319 315 307 300 299 300 300 300
327 322 326 334 328 323 321 319 320 318 317 318 317 318 319 318 319 318 318 317 317 317 316 317 317 316 316 317 317 315 316 321 327 331 330 331 338 339 338 341 342 343 344 344 344 343 343 343 342 343 344 343 343 343 342 341 340 340 339 337 335 332 330 330 332 335 336 336 336 337 337 336 335 334 333 332 332 332 332 332 331 330 329 328 327 326 325 324 322 320 319 314 305 300 299 300 300
332 324 328 336 327 321 321 320 319 318 317 318 317 317 318 318 319 318 318 317 317 318 316 317 317 315 316 316 314 312 312 314 321 330 331 327 331 337 339 341 341 342 343 343 342 342 343 343 342 343 343 343 343 343 342 341 340 340 339 337 335 333 331 331 332 334 335 336 336 337 336 336 335 334 333 332 333 333 332 332 330 330 329 328 327 325 325 324 323 321 320 318 312 302 299 300 300
331 330 335 328 321 322 322 322 319 318 318 318 317 317 317 318 318 317 317 316 316 318 317 317 316 315 317 316 314 312 312 313 315 326 333 328 327 333 336 338 340 341 341 342 342 341 341 340 339 341 344 343 343 343 342 342 341 340 339 337 336 334 331 331 332 332 334 335 336 336 336 336 335 334 333 333 334 333 332 331 330 329 329 328 326 325 325 324 323 322 320 320 316 307 300 299 300
328 329 335 323 321 325 323 321 320 321 319 317 317 316 318 317 317 316 316 317 317 319 317 316 316 316 317 316 315 313 312 313 314 324 332 330 326 327 329 332 336 339 340 340 341 341 340 338 337 340 344 342 342 342 342 342 341 341 340 338 336 335 333 331 331 332 333 334 335 335 335 335 335 335 334 334 334 333 332 331 330 329 329 328 326 325 324 323 322 322 321 320 317 310 302 299 299
325 324 331 324 322 325 325 321 320 323 318 317 317 316 318 317 317 317 318 318 316 318 316 314 315 317 315 315 317 315 313 314 316 324 331 331 328 327 325 326 332 337 338 338 339 339 339 339 338 339 342 342 341 341 340 340 340 340 340 339 337 336 335 333 332 331 331 333 334 334 335 335 335 335 334 334 334 333 332 330 330 329 329 329 327 325 324 323 322 321 320 319 316 310 304 300 299
325 327 331 324 320 321 323 321 323 325 318 317 317 316 317 316 317 318 318 317 315 316 315 314 314 315 315 316 317 314 314 315 317 325 330 331 331 330 327 327 331 333 335 336 336 336 337 338 338 338 339 340 340 340 339 339 339 339 339 339 338 337 336 335 333 332 330 331 333 334 334 334 335 335 335 334 333 333 332 331 330 329 329 329 327 325 324 323 322 320 319 318 316 313 308 303 299
326 335 334 322 319 319 317 318 324 323 317 317 317 316 318 315 317 317 316 316 316 315 315 314 314 314 315 316 314 313 315 316 318 325 329 331 332 332 330 330 330 331 332 332 333 335 335 337 338 338 338 338 338 338 338 338 338 338 338 339 339 338 337 336 334 333 331 330 331 332 333 334 335 335 335 334 334 333 332 331 330 330 329 329 328 325 324 323 322 321 320 319 318 317 314 309 305
336 344 338 324 318 318 316 318 322 321 318 317 316 317 317 315 316 316 314 315 315 314 314 313 312 313 313 313 313 314 316 316 317 322 324 325 324 323 324 324 323 324 324 324 327 331 333 335 336 337 337 338 338 338 337 337 338 338 338 338 339 338 337 337 335 334 333 331 330 330 331 332 333 334 335 334 334 333 333 332 331 330 330 329 328 326 324 324 323 322 321 320 319 318 317 317 314
336 338 336 324 316 316 316 317 320 321 318 316 316 317 318 316 316 315 315 316 314 313 314 313 312 312 312 313 314 315 316 315 316 317 318 317 316 316 316 316 317 317 317 319 320 324 329 332 334 335 336 337 338 339 339 339 339 340 339 338 338 338 338 337 336 335 334 332 330 329 329 330 331 332 334 334 334 333 333 332 332 331 330 329 329 326 324 324 323 323 322 321 320 318 318 318 318
324 329 332 321 316 316 315 317 317 317 317 317 317 317 317 316 315 315 315 316 315 315 314 312 313 313 313 313 314 315 315 315 315 315 316 315 315 315 314 315 315 316 317 318 318 318 323 328 333 334 335 336 337 338 339 340 340 340 340 339 338 338 338 338 337 336 335 333 331 330 330 330 332 333 333 333 334 333 333 332 332 331 330 329 329 327 325 325 324 323 323 322 321 318 317 318 318
322 330 327 316 316 315 314 318 317 317 317 317 317 316 316 315 315 315 315 317 317 317 314 314 315 314 313 313 312 314 314 314 314 314 315 314 314 314 314 314 315 315 316 317 318 318 318 324 330 332 334 336 336 337 338 338 339 339 339 339 338 338 338 338 337 337 336 335 333 332 332 333 334 334 334 333 333 333 333 332 331 331 330 329 329 327 325 325 324 324 324 323 322 319 318 318 317
321 327 322 314 317 316 315 318 318 318 317 317 317 316 317 315 316 316 316 318 318 315 314 314 315 313 314 313 311 312 313 313 313 313 314 313 314 313 313 314 314 315 315 316 317 317 317 319 325 330 332 334 336 336 336 337 337 338 338 338 338 338 338 338 338 337 337 336 335 334 334 335 335 334 334 333 333 333 333 331 331 331 329 330 329 328 326 326 325 324 323 323 323 321 320 318 318
319 318 317 317 318 317 316 317 318 318 317 317 317 316 316 315 316 316 316 318 319 316 314 314 314 313 313 312 311 311 311 312 312 312 313 312 312 313 313 313 314 314 314 315 314 315 316 316 319 327 331 333 335 335 335 335 336 338 338 338 338 338 338 337 337 338 337 336 336 334 333 335 334 334 334 333 333 332 332 330 330 330 329 330 329 328 328 326 325 324 323 324 323 322 321 320 319
321 317 317 319 318 317 317 317 319 317 317 317 317 316 316 316 316 317 319 318 316 314 312 313 313 312 312 311 311 311 311 311 311 312 312 312 311 312 312 312 313 314 314 314 312 312 316 317 316 323 330 332 334 335 334 335 336 337 338 339 339 338 338 337 336 335 335 334 334 333 333 333 333 333 333 333 333 332 332 331 331 330 330 331 329 329 329 328 326 324 323 324 323 322 322 321 320
322 319 318 319 317 317 318 319 318 317 318 316 316 315 316 317 315 318 320 315 313 312 310 310 310 310 310 311 310 309 310 311 311 311 311 311 310 311 312 313 313 314 314 313 312 313 317 319 317 322 329 331 334 335 334 335 335 336 337 338 338 337 336 335 334 334 333 333 334 334 333 332 332 333 332 333 333 332 332 332 331 331 330 330 329 329 329 328 327 325 324 324 323 322 322 321 320
320 318 318 319 317 317 320 321 319 318 318 316 316 315 317 318 315 318 318 312 312 312 309 309 309 310 310 310 310 308 309 310 311 310 310 309 309 311 313 314 314 314 314 314 314 316 319 321 320 323 328 329 331 332 333 335 335 335 335 336 335 335 334 334 333 333 333 332 333 333 332 332 332 332 332 333 332 332 332 332 331 331 330 330 330 329 329 328 327 325 325 324 323 322 322 321 321
317 317 317 318 317 317 319 320 319 318 317 317 316 316 318 317 315 316 313 311 313 311 311 311 310 312 311 311 309 308 308 309 309 309 309 309 309 312 314 314 315 315 315 316 316 318 320 322 323 325 327 328 328 331 333 334 334 334 334 334 333 334 333 333 333 331 330 330 330 330 330 330 331 331 331 331 331 331 331 331 330 329 329 329 329 328 328 327 327 326 325 324 323 322 322 321 321
316 317 317 318 318 317 317 318 319 318 317 317 316 317 318 315 315 315 312 311 312 312 313 312 312 313 312 311 308 307 308 307 308 308 307 308 308 311 314 315 316 316 316 317 317 319 321 323 325 326 327 328 329 331 333 332 333 332 332 332 332 331 331 331 331 330 328 327 327 328 328 328 329 329 329 329 329 328 328 328 327 327 327 327 327 327 327 326 326 326 324 324 322 322 322 321 321
316 316 317 319 319 317 317 317 318 317 315 317 317 317 316 313 315 316 313 311 312 312 313 312 313 313 312 312 309 307 307 307 307 307 307 307 308 311 313 314 315 316 316 317 318 320 322 324 326 327 328 329 330 331 331 331 331 330 330 330 329 329 329 330 329 328 327 326 326 326 326 326 327 327 327 327 326 325 325 324 324 324 324 323 324 324 324 325 324 324 323 323 322 321 321 321 320
316 316 317 321 321 319 318 317 318 318 316 317 316 316 317 315 315 315 312 311 312 312 313 313 313 312 312 311 309 307 306 306 307 306 307 307 309 312 314 315 315 315 315 316 318 320 322 324 326 327 329 330 330 330 330 329 328 328 328 327 326 327 327 328 327 326 326 325 325 324 324 324 324 325 325 325 324 323 322 321 321 321 320 320 321 322 322 322 322 322 322 322 322 322 321 320 319
317 316 316 321 323 325 320 315 317 318 316 317 315 317 325 321 314 312 311 311 313 313 313 313 313 312 311 311 310 308 305 305 306 306 307 307 311 314 314 315 315 315 315 317 318 319 322 324 325 326 328 329 329 329 328 327 327 327 326 325 324 324 325 324 323 322 322 322 322 322 322 323 322 323 323 322 321 320 320 319 319 318 318 318 318 319 319 319 319 318 318 319 319 318 316 314 313
318 317 320 322 321 328 325 315 318 317 315 317 315 318 326 323 313 311 312 312 313 314 313 312 312 311 311 311 310 308 306 304 305 306 306 307 311 315 315 314 314 315 315 316 318 319 320 322 324 324 326 327 326 326 326 324 324 324 324 323 321 321 320 320 319 318 317 318 318 319 320 320 320 321 320 320 319 317 317 316 315 315 314 315 315 314 314 312 311 308 308 310 310 309 307 306 307
318 318 329 328 320 331 327 314 317 317 314 314 315 320 324 320 313 310 311 312 313 314 313 312 312 311 311 310 309 308 305 304 305 306 306 308 311 314 314 313 313 314 314 315 316 317 318 319 321 323 324 326 324 323 324 321 320 320 320 319 318 317 317 316 314 313 312 313 314 314 313 314 315 315 315 315 315 313 312 311 310 310 311 311 311 311 310 308 305 300 298 300 300 301 302 302 302
326 320 328 330 321 326 324 315 318 318 316 314 315 321 323 320 315 312 312 313 314 314 314 312 312 312 311 309 308 307 305 304 304 305 306 307 309 312 312 312 313 313 312 313 314 316 316 315 318 320 319 321 321 319 320 318 317 317 316 316 316 315 314 312 311 310 311 311 311 310 308 309 309 309 309 310 310 309 308 308 307 308 308 308 308 308 307 305 303 298 295 295 296 296 298 298 299
333 321 320 327 325 322 321 320 319 317 317 315 314 316 319 320 316 313 313 313 314 314 313 312 311 311 310 309 307 306 306 306 305 304 306 305 306 309 311 311 312 312 311 312 313 314 314 314 317 318 316 317 317 317 317 314 313 314 313 313 313 312 310 309 309 310 309 308 308 307 307 307 306 306 306 306 307 306 306 305 305 305 306 306 305 305 304 303 302 297 294 293 294 294 294 295 299
331 324 323 327 327 323 321 322 320 317 317 317 317 316 316 317 316 313 312 312 313 314 313 312 311 311 310 309 308 306 306 306 304 304 305 305 305 308 310 311 311 311 310 310 311 312 312 311 313 315 315 314 313 313 314 311 310 310 310 309 309 308 306 306 307 307 305 305 305 305 306 306 305 304 303 303 302 301 301 301 301 302 303 304 304 303 302 301 299 295 293 293 293 293 294 294 298
327 330 333 328 325 325 323 321 319 317 317 318 317 317 317 316 317 316 312 313 313 313 314 312 311 311 311 311 308 306 306 305 304 303 305 304 305 307 309 311 311 311 310 309 309 310 310 309 309 309 310 310 310 310 310 309 307 305 306 306 305 303 303 303 303 303 303 302 302 303 304 302 301 300 298 298 297 296 295 294 295 296 298 300 302 302 301 299 295 292 292 292 292 292 293 293 296
321 325 328 326 324 324 324 321 318 317 318 321 320 317 319 319 319 317 313 313 314 313 315 313 312 311 311 311 309 307 306 304 303 304 304 304 305 307 308 310 311 310 310 309 308 308 308 308 308 306 305 305 307 307 307 307 306 305 304 302 299 298 299 300 298 299 299 299 299 300 300 298 297 296 294 294 293 292 292 292 292 292 293 294 296 297 297 295 293 291 291 291 291 291 292 292 293
319 320 321 324 326 324 325 321 317 317 318 323 326 320 320 321 319 318 315 313 313 314 314 313 311 311 310 311 310 307 306 304 303 303 304 304 304 305 307 309 310 309 309 308 307 308 307 307 307 306 305 304 304 305 306 306 305 307 304 298 296 295 295 296 295 294 295 295 296 295 295 294 293 292 292 292 292 292 291 291 291 291 291 291 291 292 291 291 291 290 291 290 290 290 290 291 292
320 323 322 325 329 327 327 323 316 318 319 326 330 322 321 322 320 319 317 314 314 314 314 313 311 311 310 310 309 306 305 304 304 304 303 304 304 304 306 307 308 307 308 307 307 307 307 307 307 306 305 305 304 305 306 305 302 304 303 298 297 295 292 292 292 291 292 292 291 291 291 291 291 291 291 292 291 291 291 291 291 291 291 291 290 290 290 290 289 289 290 290 290 290 290 290 291
323 324 321 326 329 325 326 325 317 317 319 322 326 322 320 320 318 320 316 314 317 316 315 314 311 311 310 309 308 306 305 304 304 304 303 303 303 303 304 306 306 306 307 307 306 306 306 306 306 306 305 304 305 304 305 304 300 300 299 296 294 293 290 290 290 290 290 290 290 290 290 290 291 291 291 291 291 291 291 290 290 290 289 289 289 289 289 288 288 288 289 289 289 289 289 289 290
327 326 323 327 328 324 325 326 321 322 326 323 321 324 328 325 321 322 315 312 315 313 314 315 312 312 311 309 307 306 305 304 304 305 303 302 302 303 303 304 305 305 306 306 306 305 305 304 305 305 303 303 302 302 303 303 300 297 294 292 291 290 290 290 290 290 289 290 290 289 290 290 290 290 290 290 290 289 289 289 289 288 288 288 288 288 288 288 288 288 288 288 288 288 288 288 289
327 329 326 324 326 326 325 327 327 329 334 328 322 328 338 336 329 324 316 312 314 312 312 314 312 311 310 309 308 306 305 303 303 303 302 301 302 302 303 303 304 304 304 305 305 304 304 304 303 303 302 301 300 299 300 302 299 295 292 290 290 290 290 290 289 289 289 289 289 289 289 289 289 289 289 288 288 288 288 288 288 288 288 287 287 287 287 287 287 287 287 287 288 287 288 288 287
326 328 328 327 326 324 324 327 328 332 334 327 323 330 334 332 328 326 321 316 315 312 312 312 310 310 309 308 308 306 304 303 303 302 301 301 301 301 301 302 303 303 303 303 303 302 303 302 300 300 299 298 297 296 297 299 296 292 291 291 290 290 290 289 289 288 288 288 288 288 288 288 288 287 287 287 287 287 287 287 287 287 287 287 287 287 287 287 287 287 287 287 287 287 287 287 287
330 327 330 333 328 325 326 327 328 332 332 325 324 328 327 325 326 324 322 319 316 312 312 311 309 308 308 307 307 305 304 303 303 303 301 300 301 300 300 301 301 302 303 303 302 301 300 299 298 298 297 295 294 294 294 296 293 291 291 290 290 289 289 288 288 288 288 287 287 287 287 287 287 287 287 287 287 287 287 287 287 287 287 287 287 287 287 287 287 287 287 287 287 287 287 287 286
329 325 329 332 330 330 329 328 328 328 327 325 325 324 325 329 329 321 317 319 320 315 312 310 308 307 307 306 306 305 304 303 303 302 301 299 299 299 299 300 300 301 302 303 302 301 299 299 298 297 297 296 295 293 293 293 292 292 291 290 289 289 288 288 287 287 287 287 287 286 286 286 286 286 287 287 287 287 287 287 287 287 287 287 287 287 287 287 287 287 287 286 286 286 286 286 286
325 324 328 331 330 330 327 326 328 326 326 327 326 324 326 330 331 322 316 320 322 318 313 309 307 307 306 305 305 304 303 303 301 299 298 298 298 298 299 299 299 300 301 302 302 301 300 299 299 298 298 297 295 294 292 292 292 291 291 290 290 289 289 288 287 287 286 286 286 286 286 286 286 286 286 287 287 287 287 287 287 287 287 287 287 287 287 286 286 286 286 286 286 286 286 286 285
324 327 330 331 330 331 330 327 326 326 327 327 326 325 325 328 332 327 320 322 322 319 317 310 307 307 305 305 304 303 303 302 301 298 296 297 297 298 299 298 299 299 300 301 301 300 300 299 299 298 297 296 295 294 292 291 291 291 291 290 290 290 289 288 287 287 286 286 286 286 286 286 286 286 286 286 286 286 287 286 287 286 286 286 286 286 286 286 286 286 286 286 285 285 285 285 285
325 331 331 330 330 331 330 325 324 327 329 327 324 323 322 326 334 329 321 322 320 320 320 313 307 306 305 304 303 302 302 301 300 298 296 295 296 297 297 297 297 298 298 299 299 299 299 299 298 297 295 295 294 293 292 291 291 291 291 290 290 289 288 288 287 287 287 287 287 286 286 286 286 286 286 286 286 286 287 286 287 287 286 286 286 286 286 286 285 285 285 285 284 284 284 284 284
325 329 328 327 327 329 329 326 324 327 326 322 319 321 322 323 327 324 321 322 319 318 318 313 308 306 304 303 302 302 301 300 299 298 296 294 295 295 296 296 296 297 297 297 297 298 298 297 297 295 293 293 293 292 291 291 291 291 290 290 289 289 288 288 287 287 287 287 287 287 287 286 286 286 286 286 286 286 287 287 287 287 286 286 286 286 285 285 285 285 285 284 284 283 283 283 283
323 325 328 329 327 329 332 329 326 327 327 321 316 319 324 325 325 322 319 319 317 315 314 312 307 305 304 303 302 301 301 299 298 297 296 294 294 295 295 295 296 296 296 296 296 297 296 295 295 294 292 292 292 291 292 292 291 291 291 290 290 289 288 288 288 287 287 287 287 287 287 287 286 286 286 286 286 286 287 286 287 286 286 286 286 285 285 285 285 284 284 284 283 283 282 283 283
321 323 326 328 330 334 335 331 329 330 329 321 316 320 327 329 325 317 314 314 313 313 312 310 307 305 304 302 301 301 300 299 298 297 296 294 294 295 295 295 295 295 295 295 295 295 294 294 293 293 292 292 292 292 292 292 292 292 291 291 290 289 288 288 288 288 288 288 287 287 287 286 286 286 286 286 286 286 287 287 287 286 286 286 286 285 285 285 284 284 284 283 283 282 282 282 282
321 323 324 326 330 332 330 327 325 324 325 321 318 324 329 326 319 312 312 314 312 310 310 308 307 305 303 302 301 301 300 298 297 297 296 294 294 294 295 295 295 294 294 294 294 294 294 293 293 293 292 292 292 292 292 292 292 292 291 291 290 289 288 288 288 288 288 288 287 287 287 287 286 286 286 286 287 287 287 287 287 286 286 286 286 285 285 284 284 283 283 283 282 282 282 282 282
321 322 324 324 325 326 326 326 320 318 324 324 320 324 326 322 318 312 311 313 310 308 308 306 305 304 302 302 301 300 300 298 297 297 296 294 294 294 294 294 294 294 294 293 293 293 293 293 293 293 293 293 292 292 292 292 292 291 291 290 289 288 288 288 288 288 288 287 287 287 287 286 287 287 287 287 287 287 287 287 286 286 286 286 285 285 284 284 283 283 282 282 282 282 281 281 281
323 324 323 321 322 325 326 328 324 322 326 325 321 324 325 324 322 314 310 313 312 309 308 306 305 304 303 302 301 301 300 299 298 297 296 294 294 294 294 294 294 293 293 293 293 293 293 293 293 293 293 292 292 292 292 292 291 291 290 289 289 288 288 288 288 288 288 288 287 287 287 287 286 287 287 287 287 287 287 286 286 286 286 285 285 284 284 283 283 282 282 282 281 281 281 281 281
323 325 321 322 327 327 325 326 327 327 327 327 325 324 322 322 323 319 315 316 314 310 308 307 305 303 303 302 302 301 300 300 298 297 296 294 294 294 293 294 293 293 293 293 292 292 292 292 292 292 292 292 292 292 291 291 291 290 290 289 288 288 288 288 288 288 288 288 287 287 287 286 286 286 286 287 287 287 286 286 286 286 285 285 284 284 283 283 283 282 282 281 281 281 281 281 281
320 321 316 320 325 326 326 324 326 329 327 327 328 325 325 325 322 324 323 316 312 310 308 307 305 303 303 302 301 301 300 299 298 298 297 295 294 294 293 293 293 293 293 292 292 292 292 292 292 292 292 292 291 291 291 291 290 290 289 288 288 288 288 288 288 288 288 287 287 287 286 286 286 286 286 287 287 287 287 286 286 286 285 285 284 284 283 283 282 282 281 281 281 281 280 280 280
320 321 319 319 319 321 324 323 324 328 327 327 326 324 331 328 318 319 322 314 309 309 308 307 305 304 303 302 301 301 300 299 299 298 296 295 294 294 293 293 293 293 292 292 292 292 292 291 291 291 291 291 291 291 291 290 290 289 289 288 288 288 288 288 288 288 287 287 286 286 286 286 286 286 286 287 287 287 287 286 286 286 285 285 284 284 283 283 282 282 281 281 280 280 280 280 280
319 318 319 319 319 320 323 322 323 324 325 329 328 324 329 326 315 315 319 315 309 308 308 307 305 304 303 303 302 301 300 299 299 298 296 294 294 293 293 293 293 293 292 292 291 291 291 291 291 291 291 291 291 290 290 290 289 289 288 288 288 288 288 288 288 287 287 286 286 286 286 286 286 286 286 287 287 286 286 286 286 286 285 285 284 284 283 282 282 281 280 280 280 280 280 279 279
Wind_Speed
11 12 9 7 7 7 6 3 2 3 4 3 2 3 2 3 4 4 4 3 3 2 2 0 1 1 2 6 7 8 6 3 1 3 2 3 7 6 8 11 13 16 13 16 18 16 15 14 13 13 12 12 11 11 11 10 10 10 9 9 10 11 12 12 13 12 12 12 11 11 11 10 11 12 12 13 14 13 13 13 13 12 12 14 17 19 20 18 17 15 10 7 6 6 5 5 4
12 11 8 7 5 2 1 3 3 2 5 3 1 3 1 4 6 5 5 4 1 4 2 2 2 3 3 7 8 9 8 7 4 4 4 8 9 7 11 13 15 14 12 15 18 16 15 14 14 13 13 12 12 11 11 10 10 10 9 9 9 10 10 11 12 11 11 11 11 11 10 10 11 12 13 13 12 12 13 13 12 12 13 15 18 20 21 20 18 16 12 9 7 7 6 6 5
11 11 10 8 4 2 1 3 4 2 5 4 2 1 2 5 6 5 5 4 1 3 1 3 4 3 6 8 6 7 3 4 6 3 4 6 3 5 11 13 14 13 12 13 16 16 14 14 13 13 13 13 13 12 11 10 10 10 9 8 8 9 10 10 11 10 10 11 10 10 10 10 11 11 12 12 11 11 12 13 13 13 13 15 19 20 21 21 19 16 13 11 9 8 7 7 6
10 10 11 7 4 3 3 3 3 5 4 4 2 2 4 6 6 6 4 3 2 3 2 2 3 2 7 8 3 5 2 2 5 3 3 2 3 8 12 13 14 13 12 12 14 17 14 13 13 12 13 13 13 12 11 10 10 9 9 8 8 8 9 10 10 10 10 10 10 9 10 9 10 11 11 11 10 11 11 12 13 13 13 15 19 20 21 21 20 17 13 12 10 9 8 8 7
10 10 7 3 3 1 2 2 2 5 2 4 3 1 5 7 6 6 3 2 3 5 3 2 2 2 6 4 2 3 2 1 5 7 4 4 9 12 13 14 14 14 13 12 14 16 13 13 13 12 13 13 13 13 12 11 10 9 8 7 7 8 10 10 9 9 9 10 10 9 9 9 9 10 11 10 9 10 11 11 12 13 14 16 18 20 20 21 20 18 14 12 11 10 10 10 9
12 10 3 2 1 1 3 3 4 5 1 3 5 3 6 7 7 7 4 2 2 4 4 4 3 3 5 3 4 3 4 1 2 6 4 7 11 10 12 12 14 15 14 13 13 14 12 12 13 12 13 13 14 13 12 11 10 9 8 7 7 8 10 10 10 9 9 9 9 8 8 8 9 10 10 9 8 10 10 11 12 13 14 16 18 19 20 20 20 19 16 13 12 11 12 12 11
11 7 2 2 2 1 4 3 4 4 3 2 6 5 6 6 6 7 5 2 4 4 4 3 4 6 3 1 4 6 9 6 3 4 6 10 9 8 11 12 15 16 14 14 13 13 12 11 12 12 12 13 14 13 12 11 10 9 8 8 8 9 11 11 10 10 9 8 8 7 7 8 9 9 9 8 9 10 10 11 12 13 14 15 17 18 19 20 20 19 17 14 12 12 12 12 13
6 2 1 4 2 3 5 4 2 2 1 2 3 5 6 5 5 5 4 3 1 3 4 3 5 6 2 2 4 3 12 13 7 7 9 11 9 12 15 14 15 13 12 15 13 13 12 11 11 11 11 12 14 13 13 11 10 10 9 8 8 9 11 12 11 10 9 8 7 6 6 8 9 10 9 8 9 10 10 11 12 12 13 15 17 18 19 19 20 19 18 15 13 12 12 13 13
2 1 2 4 2 3 3 3 3 2 2 2 3 3 3 3 4 4 4 4 2 2 3 3 5 5 1 7 5 1 9 11 10 10 9 11 12 16 18 16 14 12 12 14 14 13 12 11 10 10 12 12 13 13 12 12 11 10 10 9 8 10 11 12 12 9 8 7 7 6 6 8 9 10 9 8 9 9 10 11 11 11 12 15 17 17 18 18 19 19 18 16 14 12 12 13 13
3 1 2 3 2 4 3 2 2 2 2 2 3 3 2 2 4 5 5 4 3 3 3 3 6 6 4 6 4 1 7 7 9 10 8 9 12 15 18 17 14 13 13 12 12 11 12 11 9 10 12 12 13 12 12 13 12 11 10 9 8 10 11 11 11 9 8 6 6 6 7 9 9 10 9 9 8 8 9 10 10 11 13 15 16 17 17 17 18 18 18 17 15 13 12 12 13
3 3 2 4 4 3 2 3 3 3 3 2 2 2 2 3 4 4 4 4 4 4 3 4 6 4 5 4 2 2 9 10 9 9 7 6 10 13 15 16 14 13 12 10 10 9 10 10 8 10 12 12 13 12 12 12 13 12 11 10 9 10 10 11 10 9 8 6 6 7 7 9 9 10 10 8 8 8 8 8 9 11 12 14 15 16 16 17 17 17 17 17 16 14 12 11 12
3 4 4 4 2 2 4 5 5 4 3 3 1 4 2 5 4 2 4 4 4 6 3 3 2 3 5 2 3 1 11 15 9 7 5 5 8 11 12 13 14 14 13 10 9 8 7 6 6 9 12 12 12 11 11 12 13 12 12 11 11 11 11 11 10 9 8 7 6 7 8 9 9 9 9 7 7 7 6 6 8 10 11 14 15 15 15 16 16 16 16 16 15 13 12 11 11
3 1 5 2 2 4 4 5 5 4 3 0 2 3 2 5 3 1 5 5 4 5 2 2 2 4 5 2 1 2 11 14 7 5 4 6 9 9 9 10 12 14 13 12 10 8 6 3 4 10 13 13 11 10 9 10 12 12 12 13 12 11 11 11 11 10 9 8 6 6 8 10 10 10 9 7 7 6 5 5 7 9 10 12 13 13 14 15 16 16 15 14 14 13 12 11 11
2 1 5 1 0 4 4 4 3 5 1 3 1 2 2 3 2 3 7 7 4 3 1 2 3 5 4 2 2 3 8 11 5 6 6 7 10 12 11 10 11 13 12 12 12 9 6 4 4 7 12 13 10 10 9 9 10 10 11 14 14 11 10 10 10 10 9 9 7 6 7 9 10 10 8 7 6 5 3 3 5 7 9 11 12 12 13 15 16 16 15 15 14 13 13 11 11
2 1 4 2 2 3 2 2 4 5 2 3 1 1 3 0 2 6 6 5 1 2 1 4 4 3 3 2 1 2 7 9 4 8 8 8 11 15 16 14 12 11 10 10 10 10 9 7 6 4 6 10 8 9 9 8 9 9 10 11 14 13 11 9 8 9 9 9 8 6 6 8 9 10 8 7 7 5 3 2 5 6 8 10 11 11 12 15 16 16 16 16 15 13 13 12 11
3 3 4 3 2 3 1 1 4 5 2 4 1 3 4 2 2 5 2 4 1 3 4 4 5 4 3 3 3 1 7 9 7 9 10 11 12 15 17 17 15 13 10 8 7 8 9 10 9 7 5 6 6 7 8 7 7 9 9 9 12 13 13 10 8 8 8 8 8 7 6 7 9 9 8 8 8 6 4 1 4 5 6 8 10 10 12 14 15 16 17 17 16 15 14 13 12
3 4 5 3 2 2 1 2 3 4 3 3 2 4 4 2 3 1 1 5 4 5 6 4 6 6 5 6 7 8 9 10 12 13 13 14 14 16 16 15 15 14 12 9 7 6 7 9 10 9 7 5 6 7 7 7 6 7 8 10 10 11 12 11 9 8 7 8 8 8 7 7 7 8 8 8 8 7 5 1 3 4 4 6 8 9 11 13 14 14 16 16 16 16 15 15 15
5 4 4 3 1 1 1 1 1 4 4 3 0 4 6 2 1 1 2 7 6 6 6 5 7 8 9 12 13 12 12 13 15 16 17 16 15 15 15 13 12 11 10 8 7 6 6 8 9 9 8 7 6 7 8 8 6 6 7 10 10 10 11 12 11 10 8 8 8 8 7 7 6 7 8 8 9 8 7 4 2 3 3 3 6 8 10 11 12 12 14 15 15 15 14 14 15
4 3 4 1 2 1 1 4 2 3 6 4 2 4 6 4 2 1 1 4 4 7 4 4 7 7 9 12 14 14 15 17 16 17 19 17 16 15 15 13 11 9 8 7 4 3 4 6 8 9 9 9 8 5 6 6 6 6 6 9 11 11 12 12 12 11 10 9 8 7 6 6 7 7 6 7 8 8 8 5 3 3 1 2 4 6 8 10 10 10 12 13 14 14 13 12 13
2 4 5 1 3 2 3 5 5 3 5 6 3 2 4 2 2 2 2 3 4 5 2 3 5 4 5 8 13 15 17 19 17 18 18 17 16 15 14 13 11 10 8 6 2 1 3 6 7 9 9 9 9 7 4 4 5 5 5 7 10 12 13 13 13 12 11 10 8 6 6 6 7 8 7 6 8 9 8 6 6 5 2 1 2 5 8 8 8 8 9 11 12 13 12 12 12
2 3 4 4 3 3 2 4 5 3 4 6 3 3 4 0 1 2 5 5 2 3 3 3 6 6 5 5 10 14 16 17 17 18 17 16 15 13 12 11 9 8 6 5 3 2 3 4 7 9 9 10 10 9 6 4 3 4 5 5 7 10 11 13 13 12 12 11 9 8 8 8 8 9 9 8 7 9 9 8 8 8 4 1 2 4 6 7 7 7 7 8 10 10 11 11 12
3 2 4 3 4 3 2 3 4 3 4 4 3 3 1 1 1 2 6 4 3 4 3 5 7 6 6 7 8 11 14 15 15 15 16 15 14 13 11 10 9 7 7 7 6 3 2 3 6 9 11 11 11 10 7 4 4 6 6 6 7 8 10 12 13 13 12 11 10 7 6 7 7 7 9 8 7 9 8 8 8 8 5 3 3 4 5 6 6 6 5 7 8 8 9 10 11
4 1 2 3 4 4 3 2 2 3 5 3 2 2 1 2 3 1 5 4 4 5 6 7 7 8 10 10 9 8 10 11 13 14 14 14 14 13 11 11 10 9 9 10 9 4 2 2 4 9 11 12 12 10 6 5 7 9 9 10 10 7 7 9 9 9 8 7 7 4 3 5 7 7 7 6 6 7 7 6 6 6 5 4 4 3 3 4 5 5 4 5 6 7 8 9 11
5 0 3 2 3 3 3 4 3 4 5 3 2 1 1 2 2 1 5 3 5 7 7 9 9 12 13 10 8 8 10 11 13 15 15 14 14 12 10 10 10 11 11 11 10 6 5 5 4 9 11 11 13 9 4 7 11 12 12 12 10 8 7 7 6 7 5 3 5 5 4 5 8 7 6 7 7 6 8 8 7 7 6 6 5 4 4 4 7 7 5 3 4 6 7 9 11
4 1 2 1 0 2 5 5 5 4 3 3 2 1 4 5 3 2 5 5 6 7 7 9 10 11 10 8 7 8 10 12 13 15 15 13 12 11 11 10 11 12 12 12 10 8 7 6 6 9 12 11 10 7 6 12 16 15 14 13 13 12 12 14 13 12 11 10 9 6 5 7 8 8 8 8 8 7 8 9 9 9 8 7 6 7 7 7 9 9 6 4 4 6 6 8 8
1 2 2 1 3 3 4 5 6 5 4 3 1 3 6 5 4 1 4 8 6 7 7 7 9 8 7 6 6 8 9 11 12 13 14 13 12 13 12 11 12 12 11 11 10 9 9 8 8 8 9 9 8 9 12 15 16 16 16 17 17 16 16 17 15 15 15 15 13 10 8 7 7 7 7 8 8 8 7 7 9 9 8 8 9 9 9 9 10 9 9 7 6 6 5 5 5
2 0 3 3 5 5 3 5 7 5 3 5 5 5 6 3 3 2 3 7 7 8 7 6 8 6 6 6 6 10 11 10 11 11 12 12 12 13 12 11 11 11 10 11 10 10 10 10 11 10 8 9 11 14 15 16 16 16 17 18 19 19 18 18 16 15 15 15 13 12 11 10 10 9 8 10 11 12 12 11 11 11 10 10 9 9 9 9 8 9 9 8 6 6 4 3 4
1 1 5 6 6 6 4 6 6 4 2 6 7 3 4 3 2 5 7 8 7 8 7 6 7 6 6 6 6 9 10 10 11 11 11 11 11 11 11 10 10 11 12 12 9 9 10 11 13 13 13 14 15 16 17 18 18 18 18 18 19 19 17 16 15 14 13 14 12 11 13 13 13 13 13 13 14 15 16 15 15 14 13 12 10 10 10 10 10 10 9 8 6 4 3 3 4
1 2 2 7 6 5 7 6 5 5 2 6 7 2 4 2 4 5 9 9 7 8 7 7 7 6 6 6 5 7 9 11 12 12 12 11 10 10 10 10 9 11 12 11 8 7 10 12 14 16 17 17 18 19 19 22 21 20 20 19 19 18 16 16 17 16 16 15 13 13 14 14 14 15 16 16 16 17 18 18 17 17 16 15 14 12 12 12 12 12 10 8 5 3 2 4 4
1 1 1 3 6 5 6 3 6 6 3 5 6 1 6 6 5 5 8 9 8 8 7 7 6 5 6 5 5 5 8 10 11 12 11 10 10 9 10 9 9 11 10 10 9 9 11 14 15 18 19 19 20 21 21 24 24 22 21 21 21 20 20 20 20 21 20 18 17 18 17 16 17 17 17 18 18 19 19 19 20 19 18 17 18 17 16 15 14 14 11 8 7 6 5 6 5
0 1 1 1 2 5 7 0 7 6 1 4 7 2 6 6 5 7 8 8 9 8 7 7 6 6 5 5 5 4 6 10 11 12 11 10 9 9 9 10 10 10 9 10 11 12 14 16 18 20 22 21 23 24 23 25 26 25 23 23 24 25 25 24 24 24 24 24 22 22 21 20 20 19 19 19 20 21 22 22 22 21 19 19 20 21 21 20 18 18 16 12 11 10 9 9 9
1 1 3 3 1 4 7 1 7 6 1 3 6 2 6 6 6 7 7 7 8 8 7 7 7 7 6 5 6 5 5 10 12 11 10 9 9 8 9 10 11 11 10 11 13 15 17 19 20 21 22 23 25 27 26 26 27 28 26 25 26 26 27 27 27 28 28 28 28 28 27 26 25 24 23 23 23 24 25 25 24 23 22 22 22 21 22 22 21 22 21 19 17 16 15 14 13
2 2 3 3 2 3 4 2 3 5 3 1 3 3 4 4 6 7 7 8 8 7 8 8 8 8 7 6 5 6 5 7 9 10 10 9 9 8 8 10 11 12 12 13 15 17 19 21 22 22 24 25 26 28 27 28 28 29 28 27 26 27 28 29 29 28 29 29 30 30 30 29 29 27 27 26 26 26 26 26 24 22 22 23 24 23 23 23 22 23 24 24 23 22 20 18 16
4 1 3 4 2 2 1 4 4 4 5 3 4 4 5 6 5 7 8 8 8 7 8 8 8 7 6 6 6 6 5 4 6 9 9 9 8 7 8 11 12 13 14 15 17 19 20 22 23 24 26 27 27 28 28 30 30 30 30 29 29 29 30 31 30 29 30 30 29 29 28 28 28 27 26 26 26 26 25 24 23 21 21 22 25 25 25 24 23 23 24 26 26 25 23 22 20
2 2 2 3 2 2 3 3 3 4 4 4 4 5 9 9 5 6 7 7 8 8 7 7 7 7 6 6 6 5 5 4 6 9 9 9 9 7 9 12 14 16 17 18 19 21 23 24 25 26 27 29 30 30 31 32 33 33 33 32 32 32 32 32 31 30 30 30 29 28 27 27 27 26 26 26 27 28 27 27 25 24 24 24 25 26 25 23 22 23 24 25 26 27 26 24 21
5 5 4 3 3 3 4 4 4 6 4 5 7 7 8 9 6 7 7 7 8 7 6 6 6 7 7 6 6 6 6 5 7 10 9 9 9 9 11 13 15 17 18 19 20 22 24 24 26 27 26 28 31 31 32 33 34 34 34 34 34 33 33 32 32 31 30 29 29 28 27 27 27 27 28 29 30 32 32 31 30 29 28 27 27 26 25 23 22 23 24 25 25 27 28 25 22
4 3 3 4 4 4 4 3 3 3 3 6 8 7 7 8 7 8 8 7 8 8 6 7 7 7 7 7 7 7 6 6 9 11 9 10 11 11 12 13 16 17 18 18 18 20 21 22 25 25 23 25 28 30 31 32 32 33 34 35 35 33 33 34 33 32 31 30 29 29 30 29 30 30 31 31 32 32 33 32 31 31 30 29 29 27 25 23 22 22 23 25 26 29 30 28 24
4 3 3 3 2 5 5 2 2 0 1 5 5 5 8 8 7 7 8 8 9 10 9 9 9 8 6 7 8 7 6 6 10 10 10 12 12 13 13 13 16 16 16 16 17 18 19 22 24 22 21 23 26 28 30 30 30 32 33 35 35 34 34 35 36 35 34 34 33 32 33 32 32 32 31 31 31 31 31 31 30 30 29 29 28 27 25 24 24 23 23 24 26 29 30 30 28
3 1 3 2 3 4 5 3 1 0 1 4 5 5 8 8 10 8 8 10 8 7 9 9 9 9 7 8 8 7 7 6 7 8 11 13 13 14 14 14 15 15 15 15 16 18 19 21 22 22 22 23 25 27 29 31 31 32 33 35 36 36 36 37 38 37 36 36 35 34 33 32 32 32 31 30 30 30 29 30 29 28 28 27 27 27 26 26 26 25 25 25 25 26 28 28 30
3 3 3 3 3 2 3 4 2 2 1 3 5 5 6 7 11 9 4 5 3 2 5 6 7 9 9 8 8 8 9 8 6 7 9 13 15 15 16 16 15 15 15 15 16 18 19 20 21 22 22 24 26 28 29 32 33 34 36 37 38 39 38 38 39 37 37 37 36 34 33 32 31 31 30 29 29 29 28 28 28 27 27 26 27 28 28 27 26 26 26 25 25 26 26 26 27
3 4 5 4 4 5 6 3 2 2 4 3 3 6 6 5 9 8 3 1 3 3 4 5 3 5 7 7 8 8 9 9 8 7 8 12 15 15 16 17 16 16 15 15 16 17 19 21 21 22 24 26 29 30 31 32 34 38 40 39 39 39 37 37 38 36 35 36 35 34 32 30 30 30 29 28 28 28 28 28 28 28 28 27 27 28 28 27 26 25 25 25 26 25 24 24 24
4 4 7 7 7 7 6 3 4 4 5 4 2 3 6 4 6 6 0 2 4 2 4 6 4 4 7 7 7 7 7 8 8 8 9 12 15 16 17 17 17 17 16 17 17 18 20 21 23 24 27 29 31 32 32 33 36 39 40 39 37 36 34 33 34 34 35 35 34 33 31 29 29 29 29 28 28 28 28 28 27 27 27 27 27 27 27 26 26 25 25 25 25 24 22 23 23
3 4 6 7 7 6 4 0 2 1 4 3 3 1 7 5 5 7 4 6 8 5 5 6 5 5 6 6 6 7 7 7 7 8 10 13 15 17 17 17 18 18 18 20 21 22 24 25 27 29 31 31 31 32 33 35 37 37 37 37 36 37 36 32 33 35 35 34 33 32 31 30 29 29 29 29 28 28 28 27 27 27 27 26 26 26 26 25 25 24 23 24 23 22 22 23 22
4 5 4 5 5 5 4 4 2 3 3 4 2 3 5 7 6 6 5 7 8 7 8 8 7 7 6 6 6 7 8 8 7 7 9 12 15 16 18 18 19 20 21 23 25 26 27 29 30 31 31 29 28 29 33 35 37 37 37 38 36 38 39 35 34 35 34 33 33 32 31 31 29 29 29 28 28 27 27 26 26 26 26 25 25 25 25 24 23 23 22 22 22 22 22 22 21
5 5 5 6 6 5 4 5 1 1 2 4 2 4 3 8 5 1 3 5 8 11 13 10 8 8 8 7 7 7 7 8 8 7 9 13 15 17 19 19 19 20 22 24 26 27 27 28 29 29 27 25 24 28 33 35 37 38 38 39 38 37 38 37 35 35 33 33 34 32 31 30 29 28 28 27 26 26 25 25 25 25 25 24 24 23 23 22 22 21 21 21 20 21 20 19 19
4 3 5 6 5 4 5 4 3 2 2 5 5 5 3 6 3 2 2 4 9 10 9 9 8 9 9 8 8 7 7 7 7 9 11 14 16 18 20 20 19 20 22 24 25 26 26 26 26 25 24 24 24 27 32 35 36 37 38 40 40 37 35 35 34 33 33 33 33 32 30 30 29 28 27 26 26 25 24 24 24 24 24 23 22 22 21 21 21 20 19 19 18 18 17 16 16
6 6 6 7 5 5 4 2 4 2 4 6 9 10 7 4 4 4 4 5 6 4 3 6 8 9 9 8 9 8 7 7 7 8 12 16 18 20 21 21 20 21 22 24 24 25 25 25 26 25 25 25 26 28 32 34 34 36 37 38 40 38 36 36 34 33 32 32 32 31 30 29 28 27 26 26 25 24 24 24 23 23 23 22 21 21 20 19 19 18 17 17 17 17 15 14 14
7 5 5 4 4 4 5 4 4 1 6 5 9 11 9 7 6 3 5 6 5 5 6 9 11 10 9 9 9 9 8 8 8 7 11 15 18 19 20 21 21 22 23 24 25 25 25 25 26 27 27 27 29 30 33 34 34 35 35 36 38 37 36 36 35 33 32 32 32 30 29 28 27 26 25 25 25 23 23 23 22 22 22 22 21 20 19 18 17 17 16 16 16 16 14 13 13
5 5 6 3 2 3 3 2 0 3 6 4 4 5 6 8 7 7 10 8 5 6 7 10 13 12 10 10 9 9 8 8 8 8 8 12 15 18 20 22 23 24 24 25 26 26 26 26 27 29 29 30 32 33 33 34 34 34 35 36 36 35 35 34 34 33 31 30 30 29 28 27 26 25 24 24 23 22 22 22 21 21 21 20 19 18 17 16 16 16 15 15 15 15 14 13 13
5 6 6 4 3 0 3 3 2 4 5 3 1 4 3 5 4 9 11 7 5 6 5 9 12 13 12 11 10 9 9 8 8 8 7 10 15 18 21 23 24 25 26 27 27 28 28 29 29 31 31 32 34 34 34 34 34 34 34 34 34 33 33 32 32 31 30 29 28 27 26 26 25 24 24 23 22 21 21 20 20 20 20 19 18 18 16 15 15 15 14 14 14 14 13 12 12
5 5 6 5 5 4 4 4 3 4 4 3 1 3 4 3 2 6 6 4 5 4 3 7 8 9 10 9 9 9 9 8 7 8 8 11 17 20 21 23 25 26 27 28 28 29 30 30 32 33 33 34 34 34 34 34 34 33 34 34 33 32 32 32 31 30 29 28 27 26 26 25 24 24 23 22 20 20 20 19 19 19 18 18 17 17 16 15 14 13 13 12 12 12 11 11 11
2 3 4 3 5 5 3 3 5 3 2 2 2 3 4 4 3 4 3 4 6 4 5 8 7 8 9 8 9 9 8 8 8 8 8 12 18 20 21 23 25 26 27 28 29 30 31 32 33 34 34 34 34 35 34 34 34 34 34 33 32 32 32 31 30 29 27 26 25 25 25 24 23 22 21 20 19 18 18 18 18 18 17 16 16 15 14 14 13 12 12 11 11 11 11 10 10
2 3 4 4 4 5 2 3 0 2 2 4 3 4 5 2 3 3 3 3 4 4 4 7 8 9 10 9 8 8 8 8 8 8 9 13 17 19 21 23 25 27 27 28 30 31 32 33 33 33 33 33 34 34 34 34 34 34 33 33 33 32 31 31 30 29 27 26 24 24 23 22 21 21 20 19 18 18 17 17 16 16 16 15 14 14 14 13 12 12 11 11 11 11 10 10 10
6 3 5 2 2 2 2 1 3 2 3 4 3 6 4 2 4 3 4 2 4 3 5 6 7 9 10 9 9 9 9 8 8 8 10 14 18 19 21 23 24 26 27 28 29 30 31 32 33 34 33 33 34 34 34 34 34 34 34 33 32 31 30 30 29 28 26 25 24 22 22 22 20 19 19 18 17 17 16 16 15 15 14 14 14 13 13 13 12 11 11 11 11 11 11 11 10
6 4 4 4 2 1 2 2 2 1 4 5 3 5 5 5 5 2 3 8 9 7 7 7 9 11 10 9 9 9 9 8 8 8 9 13 17 20 22 23 23 24 25 27 28 29 30 31 32 33 33 33 34 33 34 33 33 34 34 33 32 31 30 29 28 27 25 24 23 22 21 21 20 19 18 17 16 16 15 14 14 14 14 14 14 13 13 12 12 11 11 10 10 11 11 11 11
2 1 1 2 2 4 3 3 3 3 3 4 3 2 4 6 6 8 11 13 12 11 10 10 12 12 10 9 10 10 10 9 9 9 9 12 18 21 23 24 24 25 26 27 28 29 31 31 32 33 33 33 33 33 33 33 33 34 33 32 32 30 29 28 27 26 24 23 22 22 21 20 20 18 17 16 15 14 14 13 13 13 13 13 13 12 12 11 11 11 11 11 11 11 12 12 13
3 2 3 2 1 2 1 2 3 4 3 3 3 5 5 4 4 8 11 11 12 14 13 12 11 11 11 10 10 10 10 10 9 9 9 13 19 21 24 25 25 25 26 27 29 30 31 32 32 33 33 33 33 33 33 33 33 33 33 33 31 30 28 27 26 25 24 23 22 21 21 20 19 18 16 15 14 13 13 12 13 13 13 13 12 12 12 11 11 10 10 11 12 12 13 14 14
5 5 7 7 5 4 2 4 3 3 3 4 3 6 7 4 3 5 6 6 9 13 13 11 10 12 12 10 11 11 10 10 10 9 10 14 19 22 24 26 26 26 27 28 29 30 31 32 32 33 34 34 34 34 34 34 34 34 33 32 31 29 28 27 26 25 24 23 22 21 20 19 18 17 15 13 13 12 12 11 12 12 12 12 12 11 11 11 10 10 10 11 12 13 14 15 16
Wind_Direction
339 341 350 354 346 340 334 61 62 331 79 82 103 94 35 62 90 70 50 36 58 305 269 101 18 51 89 103 100 78 50 28 101 115 136 163 122 121 129 130 148 150 152 164 170 170 166 161 155 153 150 145 139 132 122 114 111 104 100 101 109 113 110 113 108 99 99 98 96 97 99 100 99 96 93 88 86 84 79 74 69 62 55 49 43 39 34 29 26 23 24 32 39 38 41 46 58
345 352 6 0 347 11 305 92 82 346 59 60 23 99 89 52 66 73 76 77 124 250 285 5 15 48 86 111 98 68 38 7 47 99 116 123 117 123 129 138 152 149 147 160 171 171 166 163 158 157 155 151 145 138 128 119 114 105 99 97 105 115 113 115 111 106 105 102 100 102 102 101 100 98 94 90 88 85 79 77 72 63 56 50 44 40 35 32 28 29 33 39 43 43 43 43 48
346 355 3 9 12 72 28 50 87 77 74 88 5 326 89 74 90 104 110 112 232 258 343 2 14 36 54 66 62 71 67 357 34 71 119 124 109 120 133 141 152 153 147 152 169 173 169 166 161 161 160 155 150 144 135 125 118 109 103 100 105 120 120 117 112 110 110 108 106 105 106 103 102 100 95 93 92 86 79 76 73 67 60 51 44 40 36 34 31 32 38 42 43 42 40 40 41
348 355 351 9 41 35 51 56 114 108 103 132 65 341 95 105 121 114 127 131 359 28 53 30 36 31 72 72 66 78 89 357 22 58 122 113 94 123 133 137 151 156 147 148 167 173 172 168 164 163 162 158 153 146 140 132 122 113 108 106 107 123 131 126 118 113 112 113 110 108 109 107 106 103 98 98 95 84 78 76 73 69 61 50 43 39 37 35 33 33 37 43 44 44 43 44 43
354 357 342 24 76 31 82 77 91 92 124 175 120 108 121 123 128 122 141 119 60 67 65 68 56 16 73 62 52 75 326 294 36 56 91 108 108 119 127 134 152 154 149 147 159 172 174 172 167 165 163 160 158 150 145 139 128 119 113 112 108 125 137 134 127 118 115 117 115 112 114 113 111 106 102 101 92 80 74 72 69 65 59 49 41 39 37 35 34 32 34 41 45 48 49 50 48
353 360 1 105 108 149 86 61 66 70 315 162 127 160 142 134 136 134 130 87 44 82 89 75 78 63 72 43 62 66 320 245 87 49 84 118 112 119 130 138 152 154 154 147 148 164 168 175 173 166 166 165 162 154 150 146 135 126 123 121 111 127 140 140 135 124 118 118 117 119 122 120 116 111 107 101 87 79 75 71 68 65 57 48 42 40 39 36 34 32 32 36 44 49 51 51 49
350 356 50 63 349 63 86 99 101 73 358 100 131 150 136 138 142 131 122 81 1 22 66 82 111 94 74 120 83 30 22 61 107 69 95 116 114 121 133 137 149 154 160 158 151 154 156 170 177 173 171 168 164 158 156 152 141 133 130 129 118 130 142 143 140 130 122 120 123 128 129 125 124 117 110 103 92 88 80 73 70 67 58 47 43 42 41 37 34 32 31 33 40 46 49 51 50
353 343 64 77 21 35 90 109 111 125 47 54 126 139 125 125 123 123 126 114 83 5 23 19 84 89 354 65 99 31 47 57 74 103 111 114 113 116 126 132 146 152 155 164 159 153 155 165 177 177 173 168 165 162 161 155 147 140 134 134 126 135 144 144 144 136 129 129 135 136 131 128 124 115 108 105 99 92 80 75 73 67 58 46 42 42 40 37 34 32 31 31 36 42 46 49 52
28 143 21 76 57 31 82 91 66 114 102 65 85 100 97 87 87 101 103 80 121 80 16 341 58 98 135 67 95 121 59 53 63 95 115 121 116 115 124 125 136 142 138 152 153 152 157 165 177 178 175 170 168 166 163 160 155 147 139 139 133 140 147 148 148 144 143 144 145 142 139 133 123 114 109 105 98 88 81 81 76 64 53 44 39 39 38 37 35 33 32 30 33 38 43 46 51
47 104 59 73 60 53 57 73 79 98 105 128 94 88 69 32 66 82 101 91 114 97 342 342 65 107 143 85 96 68 54 48 58 75 91 119 126 124 128 121 120 128 128 138 144 151 156 164 175 181 180 171 171 169 164 165 162 154 145 142 139 145 152 155 156 155 153 150 145 142 146 139 128 123 116 110 100 88 85 80 67 55 47 40 37 38 38 38 35 34 32 30 31 33 40 44 49
41 340 88 71 45 78 131 122 115 131 122 108 42 11 40 32 55 47 75 91 90 85 338 5 65 105 108 78 148 106 51 44 51 66 65 93 132 137 136 130 123 121 120 124 132 143 153 165 178 185 184 175 172 171 169 169 167 162 152 146 142 146 157 164 166 167 161 151 142 141 149 143 135 131 125 120 109 96 87 71 55 47 42 38 37 40 38 37 36 34 32 31 32 33 38 43 49
69 334 68 74 60 128 165 138 139 140 81 68 19 304 6 48 56 34 62 78 68 72 11 6 85 117 98 84 185 175 27 30 39 70 69 71 121 139 142 141 135 123 112 115 126 131 140 158 186 190 187 181 176 174 173 170 171 170 159 152 145 143 156 170 176 179 171 161 148 144 151 150 147 143 137 132 118 108 87 63 50 42 38 38 39 42 39 37 35 34 33 32 33 36 39 44 51
93 55 80 88 172 136 127 127 154 121 43 323 188 263 42 63 80 148 86 70 60 78 354 294 117 85 94 136 158 4 11 18 31 76 96 74 90 118 127 134 142 135 116 110 117 122 124 121 173 188 190 186 179 179 177 174 175 174 169 160 151 146 152 169 183 189 182 172 159 148 155 156 158 157 151 145 132 122 97 64 45 40 36 39 41 41 40 38 36 35 36 36 37 39 41 44 50
95 119 104 113 46 111 118 120 152 109 49 264 221 292 39 92 139 97 89 71 51 122 239 314 99 90 102 136 20 340 353 4 34 96 111 86 80 88 91 107 135 142 131 122 118 120 122 125 156 179 194 189 179 182 181 179 178 182 185 170 160 156 154 165 182 194 194 184 171 157 160 162 166 167 165 164 156 144 119 70 46 44 40 42 41 41 42 41 39 39 43 46 45 43 44 47 49
118 116 97 95 14 65 122 132 142 119 157 241 231 159 67 129 117 74 95 111 88 213 135 25 46 103 130 147 193 298 351 7 68 119 117 105 90 82 77 89 109 122 131 135 131 130 121 125 149 147 184 190 190 200 198 193 187 195 203 180 168 168 163 164 177 193 200 195 189 175 165 164 168 176 181 180 174 171 171 70 53 53 45 43 41 44 45 44 43 45 52 54 52 48 47 50 51
110 102 72 72 34 63 111 99 111 105 187 215 212 98 80 326 62 84 167 139 111 348 53 14 15 88 100 118 150 43 32 44 100 132 128 117 102 90 82 85 92 95 105 117 132 147 135 122 136 143 162 190 206 216 221 220 208 209 212 192 183 180 167 164 176 188 197 198 199 190 176 167 169 181 188 184 183 186 193 82 60 66 52 42 42 51 52 49 48 48 51 51 51 49 48 50 51
64 76 63 55 52 72 68 41 123 146 193 210 7 62 112 296 2 92 265 77 82 38 53 27 32 79 92 105 104 73 66 74 99 117 114 108 98 91 84 85 90 86 86 90 103 137 157 144 139 146 154 172 200 213 215 213 207 212 211 200 197 190 174 170 176 182 196 197 197 197 189 180 174 180 186 189 195 193 193 191 79 81 60 42 43 57 61 56 53 49 49 47 44 42 44 45 42
51 71 80 75 83 53 210 112 171 149 142 185 6 77 113 141 336 333 356 36 68 73 59 60 59 69 85 98 92 75 78 80 88 94 86 83 79 73 67 67 73 71 72 78 92 111 141 160 158 158 154 149 171 206 213 210 208 213 211 206 204 196 186 180 179 181 193 198 196 197 195 193 185 180 184 193 201 199 192 192 142 102 73 44 48 63 72 65 58 52 50 47 42 40 42 42 35
67 93 82 107 172 39 149 127 84 105 140 153 100 88 103 151 179 83 23 3 61 94 70 81 76 67 75 84 85 78 77 75 76 79 73 66 62 56 51 50 50 47 47 54 75 114 130 156 170 174 168 154 148 163 196 200 198 205 212 213 207 200 194 190 189 186 189 196 196 192 189 191 186 181 182 190 199 199 194 196 182 153 114 45 65 76 82 75 66 53 49 48 41 42 43 42 35
77 96 76 258 189 68 30 97 90 95 135 127 111 97 83 167 172 100 121 42 59 121 148 124 108 106 96 76 81 80 75 73 71 72 69 63 60 56 48 43 37 30 23 17 20 186 170 162 170 178 178 171 159 143 143 164 174 190 208 211 207 205 201 196 196 194 195 194 195 195 191 197 198 195 187 185 195 194 194 198 196 203 229 57 89 92 92 86 80 64 51 47 43 42 41 41 39
40 89 128 222 154 83 9 89 96 74 94 122 143 86 62 237 135 111 129 84 32 181 199 153 140 141 127 92 82 81 77 73 70 70 69 65 61 58 53 46 35 25 11 347 330 278 223 179 172 180 182 174 163 153 147 160 187 192 197 197 199 207 208 203 197 197 205 199 195 194 188 202 210 206 193 182 191 194 199 199 200 220 236 170 120 105 98 92 91 86 66 52 46 42 39 42 44
61 63 146 169 94 111 223 116 100 83 70 81 86 83 104 229 56 147 143 146 217 195 165 133 132 137 125 110 93 83 81 76 73 73 73 70 63 59 53 44 34 20 10 357 346 325 258 188 181 181 178 173 162 154 148 154 187 184 186 189 186 200 206 204 200 199 208 204 199 187 177 200 197 196 194 186 195 197 203 203 204 225 231 201 152 121 106 102 101 102 85 57 48 38 38 43 45
99 333 46 51 82 131 196 138 116 104 88 82 113 159 161 44 324 210 130 164 185 149 140 131 120 119 111 103 96 84 84 85 81 77 76 74 65 58 51 42 35 23 20 10 1 16 79 115 172 178 173 173 163 150 139 138 155 162 174 186 180 184 198 205 209 203 209 210 199 184 178 198 178 173 182 188 201 197 203 200 202 220 214 210 178 148 149 130 129 126 96 56 50 35 33 39 39
95 29 345 11 82 126 161 159 156 119 128 192 135 89 139 114 271 60 92 133 138 128 131 125 111 105 102 96 92 85 85 90 91 84 77 74 65 60 55 49 43 33 31 21 18 49 70 68 121 165 166 165 160 155 146 136 139 144 158 170 159 149 149 145 143 148 158 155 164 182 184 171 162 162 166 180 197 197 208 202 202 215 207 215 208 191 199 162 154 145 114 69 58 35 27 33 33
73 115 290 311 326 189 165 154 161 152 183 216 77 354 235 195 199 108 137 158 136 136 135 121 106 95 94 96 96 89 82 84 90 86 77 71 64 62 60 54 49 43 36 29 32 50 54 57 96 148 157 158 162 166 154 136 133 132 136 139 134 131 125 118 118 123 122 116 124 146 152 140 142 155 159 173 191 191 209 210 199 203 201 200 193 185 183 165 161 154 131 111 80 55 42 37 35
205 179 277 301 287 256 172 163 181 186 207 187 131 269 263 232 202 176 165 167 150 138 134 122 107 97 95 97 99 94 83 79 85 86 79 72 61 58 61 56 51 48 44 42 43 49 53 61 86 130 152 159 164 156 143 133 131 129 124 124 125 126 123 120 119 114 110 108 107 108 109 107 109 130 138 143 162 158 168 184 172 169 168 165 164 162 161 160 161 150 136 125 98 85 69 44 43
230 145 322 290 269 274 191 190 203 188 205 174 166 240 274 280 203 225 192 171 156 137 138 125 110 112 110 99 95 91 84 81 87 89 80 71 64 62 63 59 55 53 54 56 53 52 59 69 84 105 128 143 148 141 135 128 126 126 122 122 120 119 119 120 116 108 100 95 93 92 87 84 86 96 110 117 126 125 124 128 127 130 130 128 135 138 140 146 142 133 130 127 106 92 76 44 40
177 64 334 298 284 290 231 213 216 169 195 182 159 228 293 357 257 213 179 168 159 144 144 128 117 125 117 106 98 91 89 88 88 87 81 73 68 68 64 58 57 60 61 64 62 60 66 80 94 106 121 135 138 132 127 122 119 119 121 120 116 115 117 116 113 107 98 91 88 87 85 86 90 95 103 109 110 108 106 104 102 102 100 99 105 112 117 121 120 118 117 118 109 90 66 36 27
108 87 326 301 333 314 245 219 198 155 179 180 141 349 304 247 239 192 157 161 157 145 144 134 131 135 124 114 103 98 99 95 89 87 87 83 75 72 70 60 60 65 68 74 81 82 82 93 105 114 124 131 131 127 123 117 114 114 114 114 112 113 116 114 110 106 103 100 97 95 94 94 97 101 103 103 103 103 100 97 94 91 86 87 91 94 97 99 102 101 97 102 104 87 44 28 27
318 41 154 308 358 322 263 200 158 152 166 159 127 342 279 247 225 169 157 160 148 146 153 146 142 141 133 123 109 105 104 97 92 93 92 87 82 79 77 73 69 71 76 86 94 98 100 107 115 120 125 127 125 126 125 119 116 113 110 109 108 107 108 107 105 103 102 103 102 99 98 99 101 104 105 105 104 102 100 95 91 88 86 87 87 87 87 86 86 82 74 75 72 56 38 29 23
285 344 53 359 18 291 300 58 146 154 193 118 110 203 263 268 224 179 176 168 154 158 167 157 154 151 142 133 121 114 105 101 96 95 93 88 90 88 82 81 82 83 86 93 101 109 113 116 120 120 121 125 123 124 126 121 118 115 111 107 104 102 102 101 99 98 97 96 96 94 94 97 99 101 104 106 104 98 95 92 90 89 90 90 89 87 83 78 74 68 60 58 55 50 48 42 37
77 56 325 338 161 266 312 358 152 156 225 96 112 208 271 270 222 197 187 175 163 163 174 167 160 159 151 145 134 127 112 103 98 96 94 89 93 94 89 85 88 93 95 100 109 116 117 117 121 122 122 125 122 119 120 117 114 113 110 106 103 101 99 97 96 95 94 93 93 91 90 92 94 95 96 99 98 94 92 91 90 91 91 90 88 86 81 73 67 63 58 56 53 52 51 47 43
351 121 246 271 185 266 315 306 208 154 137 166 181 217 272 265 215 202 194 186 178 171 182 175 166 167 158 151 143 139 126 104 98 99 98 94 94 95 92 92 96 98 100 108 116 118 115 112 119 124 122 123 120 117 117 112 110 109 108 107 104 101 99 97 97 96 95 94 95 94 93 93 93 93 93 94 94 92 91 90 89 90 91 89 87 84 80 73 66 62 57 55 54 51 49 44 39
320 93 227 253 212 211 243 292 283 140 131 209 231 228 248 263 217 200 202 189 188 190 190 178 166 166 159 153 151 144 134 118 109 107 106 102 99 99 97 98 105 104 101 108 115 118 116 112 117 121 119 121 120 118 118 112 110 110 107 106 105 102 99 99 99 99 97 96 97 97 97 96 95 94 93 93 93 91 90 89 89 90 91 91 89 85 81 76 70 64 58 55 54 52 47 40 40
200 185 210 269 280 223 196 254 258 159 165 217 222 242 251 263 244 214 219 193 198 210 191 175 165 160 160 153 151 146 129 127 127 118 116 111 106 109 110 108 108 107 104 105 110 114 114 111 111 114 116 117 116 117 117 113 109 108 107 105 103 100 99 99 99 98 97 97 97 97 98 97 95 95 93 93 92 91 90 88 88 88 90 92 90 86 80 73 67 63 60 56 54 54 49 44 49
172 172 166 191 249 277 231 234 229 170 180 232 222 233 248 257 243 222 228 205 204 213 177 169 171 159 162 155 147 142 130 134 132 125 125 120 114 116 119 118 114 112 111 107 108 111 111 110 110 110 112 113 113 114 114 112 108 105 105 103 99 97 97 98 97 97 97 97 98 98 98 97 96 96 94 94 92 91 88 86 85 83 84 85 84 82 77 72 66 62 60 56 53 52 50 49 53
193 161 162 192 211 272 270 253 258 156 159 245 234 237 257 262 245 222 219 209 208 210 185 181 182 168 167 159 147 140 138 144 134 128 132 127 122 121 122 126 123 118 117 113 111 113 112 115 116 114 116 117 117 117 115 115 112 108 105 101 98 96 97 98 96 97 98 97 98 98 98 97 97 96 94 93 91 89 87 85 83 81 79 80 80 80 78 76 71 67 64 58 55 52 49 48 48
244 226 213 250 237 253 270 255 258 214 196 262 272 273 271 270 263 239 203 199 213 206 192 189 183 173 169 157 148 143 140 141 135 134 136 133 129 127 127 130 128 124 124 118 116 119 120 122 124 124 126 126 124 125 123 119 116 115 111 106 103 99 97 99 97 96 98 98 98 97 97 97 96 94 92 91 89 87 85 83 81 80 79 79 79 78 75 73 70 67 65 62 61 58 54 49 46
212 206 173 243 267 264 296 322 310 24 181 260 286 281 268 270 268 252 207 200 216 205 189 189 178 168 172 164 152 146 146 145 144 146 144 140 135 130 130 130 127 126 128 124 121 126 128 127 129 132 132 131 128 127 125 121 118 118 116 112 110 104 99 100 99 98 99 98 97 96 95 95 93 91 89 88 86 84 82 80 79 77 77 76 76 74 71 69 65 63 62 61 62 61 59 53 49
173 163 159 228 262 262 290 311 305 276 244 257 285 284 267 267 265 261 239 195 174 136 166 172 170 171 174 168 154 151 155 156 156 157 152 145 139 133 132 131 129 127 129 129 126 128 130 131 135 136 135 133 130 128 125 123 119 117 116 113 111 108 103 103 102 100 100 99 97 96 95 93 92 90 87 85 83 82 80 79 78 76 75 73 72 71 69 66 63 61 59 58 58 58 60 56 54
249 202 186 212 236 219 229 269 326 325 327 316 329 314 283 257 254 262 328 69 150 127 127 124 125 156 151 147 152 157 158 159 160 163 161 150 142 138 135 135 135 129 127 130 130 130 131 134 137 138 136 133 131 129 127 128 124 119 116 113 111 108 105 105 103 99 98 98 97 95 94 93 92 89 88 86 84 83 81 80 78 77 75 73 71 70 69 66 63 61 57 57 56 57 61 60 57
279 239 202 205 215 224 240 302 16 4 325 310 49 330 286 282 263 252 224 165 200 183 158 155 140 134 142 147 158 159 155 158 161 161 160 152 142 138 137 138 136 129 127 129 131 133 134 133 135 135 133 131 130 129 130 132 130 125 121 118 115 110 103 101 102 100 99 99 98 97 95 94 93 90 88 86 84 83 81 79 77 76 74 72 71 70 68 66 63 60 57 56 57 54 56 58 55
254 250 202 198 205 216 234 250 48 290 268 291 84 109 277 284 265 247 192 195 221 220 208 196 176 162 159 158 158 158 155 156 158 155 154 151 144 138 138 139 135 131 132 134 133 132 133 132 132 132 130 129 130 131 134 135 131 128 126 122 118 114 107 103 104 104 104 103 102 100 97 94 92 90 88 85 83 81 79 77 75 74 73 71 70 68 67 65 62 61 57 56 57 54 53 56 54
228 245 155 139 160 181 187 132 132 222 252 318 50 122 277 276 257 250 186 190 233 236 226 219 195 183 174 166 163 157 157 156 153 154 155 153 149 142 140 139 137 136 138 139 136 132 132 133 132 131 130 130 134 136 137 137 134 130 126 120 115 112 111 110 109 108 107 106 104 101 98 95 92 90 88 85 83 81 79 77 75 74 73 71 69 68 68 67 64 63 60 57 57 56 54 57 56
237 224 132 108 123 140 123 109 125 301 350 301 245 134 264 272 265 301 137 192 243 239 224 216 196 187 182 177 171 157 155 156 150 153 157 154 149 144 142 140 139 141 144 143 140 138 138 138 137 137 136 137 142 143 140 138 136 132 127 121 115 113 113 113 113 111 110 108 104 102 99 97 94 91 89 87 84 82 80 78 76 74 72 71 69 69 68 67 64 61 60 59 57 57 57 57 58
205 137 90 67 71 70 66 97 105 26 327 242 205 162 225 268 251 131 121 226 244 242 224 205 191 189 184 176 172 163 154 150 147 148 151 150 146 144 143 142 141 143 145 146 146 146 144 143 144 143 144 146 149 150 143 137 136 133 128 125 121 120 119 118 116 113 111 109 106 103 101 98 96 93 91 88 86 83 81 79 77 74 72 71 70 69 68 66 65 63 61 61 59 60 60 60 62
134 87 61 44 28 31 39 58 85 57 277 225 192 187 193 264 270 187 193 225 222 219 202 188 185 185 183 173 168 166 157 151 146 140 143 144 143 144 144 143 143 143 145 148 150 151 149 148 147 145 146 149 151 153 147 139 137 135 131 129 128 128 127 124 121 117 114 111 108 105 103 100 97 95 92 89 86 84 82 79 76 75 73 71 69 69 68 66 67 66 64 63 61 60 59 59 61
101 86 83 62 354 11 21 3 57 135 257 230 201 192 185 228 261 227 236 255 228 199 186 186 184 181 179 171 165 164 159 153 148 141 143 142 141 145 147 145 145 146 148 150 152 154 152 151 150 146 146 150 152 153 148 141 138 136 134 133 132 132 132 128 124 122 118 114 111 108 106 102 99 97 93 90 87 83 81 79 76 74 71 69 68 69 68 66 66 65 65 63 61 59 56 54 52
88 103 106 105 309 358 1 316 155 223 252 249 204 179 195 236 252 257 259 261 256 237 200 180 178 178 173 166 163 160 156 155 152 152 152 149 149 151 151 149 149 150 152 153 154 156 154 154 153 149 147 150 152 150 147 143 141 139 137 136 135 134 133 129 126 123 120 116 114 111 108 104 101 98 94 91 88 84 80 77 75 72 70 69 68 68 68 65 62 62 62 59 56 54 50 47 46
142 137 133 149 166 183 260 249 248 256 263 280 196 158 224 270 267 259 259 254 268 270 217 177 172 171 167 163 159 154 156 160 157 158 157 157 158 159 157 155 154 154 155 156 156 157 155 154 154 150 148 150 150 149 147 144 143 142 141 140 139 138 134 130 127 124 121 118 115 112 108 105 101 98 95 92 89 85 81 77 74 72 70 69 67 66 65 63 59 57 57 54 52 49 44 43 41
175 154 136 153 160 170 215 212 213 250 274 294 276 163 196 221 246 261 270 287 305 303 165 147 147 153 152 151 154 156 161 162 160 161 162 163 163 162 161 159 158 158 158 158 157 157 155 154 154 151 149 151 151 150 149 148 147 147 146 145 143 141 137 132 128 125 123 120 116 112 109 105 102 100 98 95 92 87 82 78 74 71 68 66 64 63 62 61 59 57 57 55 52 47 41 39 36
222 129 115 173 185 173 208 212 183 188 286 278 220 216 217 205 250 285 317 343 358 32 103 121 127 139 142 151 163 165 164 164 165 164 162 163 163 162 162 161 161 160 159 160 159 159 157 155 154 153 152 153 154 153 152 151 151 151 150 149 147 144 139 135 131 128 125 121 117 114 110 107 105 103 101 99 94 88 82 78 73 69 66 63 61 60 59 59 59 57 57 54 50 46 39 33 31
177 135 175 207 180 153 185 278 355 104 264 259 196 239 291 292 279 322 34 30 24 53 115 135 142 148 152 164 170 170 170 166 167 168 163 161 160 162 163 163 163 162 162 162 162 162 160 157 155 154 154 155 155 155 154 153 153 153 153 152 150 147 142 138 134 130 127 123 120 116 113 110 108 106 104 101 95 89 83 77 73 69 65 61 59 58 57 56 55 54 52 47 45 42 35 30 25
132 177 208 179 59 93 129 260 342 48 252 268 197 219 260 237 252 334 57 168 221 200 164 148 152 162 168 174 172 171 169 164 166 164 160 160 159 161 163 165 165 164 164 164 163 163 162 160 158 156 156 157 157 156 156 155 156 155 155 154 152 148 144 139 136 133 130 128 124 120 117 115 114 111 106 101 95 89 84 77 71 67 63 59 56 54 53 51 50 49 46 41 36 34 30 27 21
131 189 196 120 113 213 132 173 226 199 244 280 251 223 223 203 214 218 188 209 211 198 183 174 176 178 179 176 172 171 165 162 165 162 161 162 161 161 162 164 165 164 164 164 164 165 163 162 162 160 159 159 158 158 157 158 159 158 156 155 152 149 145 142 139 136 134 131 128 125 123 121 119 114 108 102 96 89 83 76 69 64 60 55 51 48 45 44 42 41 38 34 28 25 22 19 15
68 67 174 105 156 175 165 180 174 167 223 269 288 257 235 226 203 181 199 209 194 182 188 193 190 185 182 177 174 174 170 169 169 166 167 163 161 163 163 164 165 165 166 166 166 167 166 165 164 162 161 160 160 161 160 161 161 159 158 156 153 150 147 144 142 140 138 134 131 130 128 125 121 116 110 103 95 88 81 73 67 62 56 50 44 41 39 37 35 32 29 26 21 18 14 11 9
160 150 179 199 164 130 178 225 156 144 191 234 278 280 260 246 198 186 209 213 190 185 191 194 191 183 182 182 178 176 171 171 171 167 166 162 160 162 164 166 167 166 167 169 170 170 168 167 166 164 163 163 163 163 164 164 163 162 160 158 156 153 150 147 145 144 141 138 136 135 132 128 123 117 112 104 96 88 80 71 65 57 50 44 38 34 31 27 27 24 20 18 14 11 8 4 1
174 184 189 186 175 151 196 250 208 161 198 188 208 270 265 235 191 207 229 226 198 194 192 186 184 183 183 183 179 177 172 171 172 166 163 161 160 161 165 168 169 169 170 172 173 173 171 169 169 168 167 167 167 167 168 167 165 164 163 161 159 156 153 151 150 148 146 143 142 140 136 131 125 120 114 105 97 89 80 70 61 51 43 37 31 26 23 19 17 15 14 12 8 4 1 357 354